Regional Weather Roundup
Issued by NWS

Home | Current Version | Previous Version | Graphics & Text | Print | Product List | Glossary On
Versions: 1 2 3 4 5 6 7 8 9 10 11 12 13 14 15 16 17 18 19 20 21 22 23 24 25 26 27 28 29 30 31 32 33 34 35 36 37 38 39 40 41 42 43 44 45 46 47 48 49 50
000
ASUS45 KPSR 230810
RWRAZ

ARIZONA HOURLY REGIONAL WEATHER ROUNDUP
NATIONAL WEATHER SERVICE PHOENIX AZ
100 AM MST MON OCT 23 2017

NOTE: FAIR INDICATES FEW OR NO CLOUDS BELOW 12,000 FEET WITH NO
SIGNIFICANT WEATHER AND/OR OBSTRUCTIONS TO VISIBILITY.

AZZ001>003-036-230900-
NORTHWEST ARIZONA

CITY           SKY/WX    TMP DP  RH WIND       PRES   REMARKS
BULLHEAD CITY  CLEAR     79  27  14 N17G24    30.13R
KINGMAN        CLEAR     54  27  35 SE7       30.30S
$$

AZZ004>008-015-016-018-230900-
NORTH CENTRAL ARIZONA

CITY           SKY/WX    TMP DP  RH WIND       PRES   REMARKS
GRAND CANYON   PTCLDY    30  11  45 NE5       30.48S WCI  25
WILLIAMS       PTCLDY    36  21  55 S8        30.47S WCI  29
PRESCOTT       CLEAR     47  30  51 S8        30.37S
FLAGSTAFF      PTCLDY    29  13  51 CALM      30.49S
PAYSON         CLEAR     59  21  23 N3        30.37R
PAGE           CLEAR     53  23  31 SW3       30.36F
$$

AZZ009>014-017-230900-
NORTHEAST ARIZONA

CITY           SKY/WX    TMP DP  RH WIND       PRES   REMARKS
WINSLOW        PTCLDY    42  12  29 CALM      30.40S
SAINT JOHNS    PTCLDY    43  17  35 S5        30.42S
WINDOW ROCK    CLEAR     30  14  51 CALM      30.46F
SHOW LOW       CLEAR     43  16  33 E5        30.46S
$$

AZZ540-542>544-546-548-230900-
GREATER PHOENIX AREA

CITY           SKY/WX    TMP DP  RH WIND       PRES   REMARKS
PHOENIX        CLEAR     71  30  21 E5        30.08S
BUCKEYE        CLEAR     72  14  11 N6        30.09S
LUKE AFB       CLEAR     67  27  22 N6        30.07S
DEER VALLEY    CLEAR     67  17  14 CALM      30.10S
SCOTTSDALE     CLEAR     69  24  18 CALM      30.11F
MESA-GATEWAY   CLEAR     59  27  29 SE6       30.10F
$$

AZZ539-553-230900-
SOUTHWEST MARICOPA COUNTY AND PINAL COUNTY

CITY           SKY/WX    TMP DP  RH WIND       PRES   REMARKS
CASA GRANDE    NOT AVBL
$$

AZZ503-504-507>509-230900-
SOUTHEAST ARIZONA

CITY           SKY/WX    TMP DP  RH WIND       PRES   REMARKS
TUCSON         CLEAR     60  23  24 SE8       30.18S
DAVIS-MONTHAN  CLEAR     60  23  24 S8        30.16S
NOGALES        CLEAR     55  25  31 CALM      30.23F
SIERRA VISTA   CLEAR     58  23  25 S6        30.30S
DOUGLAS        CLEAR     45  21  38 CALM      30.26F
SAFFORD        CLEAR     51  12  21 CALM      30.21S
$$

AZZ532-230900-
SOUTHWEST ARIZONA

CITY           SKY/WX    TMP DP  RH WIND       PRES   REMARKS
YUMA           CLEAR     69  28  21 CALM      30.05F
$$

CAZ041-043-047-048-061-525>527-560>570-230900-
SOUTHERN CALIFORNIA

CITY           SKY/WX    TMP DP  RH WIND       PRES   REMARKS
DOWNTOWN L.A.  CLEAR     68  55  63 CALM      30.05F
L.A. AIRPORT   PTCLDY    78  43  28 NE7       30.05F
SAN DIEGO      CLEAR     67  43  41 NW3       30.06S
BURBANK        CLEAR     68  36  30 CALM      30.08F
ONTARIO        CLEAR     67  37  33 CALM      30.10S
RIVERSIDE      CLEAR     71  34  25 NE6       30.11S
PALM SPRINGS   CLEAR     76  33  21 NW6       30.12S
EL CENTRO NAS  CLEAR     67  17  14 W10       30.07F
IMPERIAL       CLEAR     64  29  26 W6        30.05F
BLYTHE         CLEAR     70  24  17 S3        30.09S
NEEDLES        CLEAR     72  28  19 W3        30.14S
$$

NVZ020-UTZ003-230900-
SOUTHERN NEVADA-UTAH

CITY           SKY/WX    TMP DP  RH WIND       PRES   REMARKS
LAS VEGAS      CLEAR     66  30  26 NW5       30.26R
SALT LAKE CITY PTCLDY    54  37  52 CALM      30.41S
$$

NMZ009-TXZ055-230900-
NEW MEXICO-WEST TEXAS

CITY           SKY/WX    TMP DP  RH WIND       PRES   REMARKS
ALBUQUERQUE    CLOUDY    57  23  26 N9        30.37F
EL PASO        CLEAR     55  22  27 CALM      30.24S
$$


........................KEY........................
SKY/WX - SKY CONDITION/WEATHER
TMP    - TEMPERATURE IN FAHRENHEIT
DP     - DEW POINT IN FAHRENHEIT
RH     - RELATIVE HUMIDITY IN PERCENT
WIND   - DIRECTION AND SPEED IN MILES PER HOUR (MPH)
VRB    - VARIABLE WIND DIRECTION
PRES   - MEAN SEA LEVEL PRESSURE IN INCHES OF MERCURY
         F - FALLING PRESSURE   R - RISING PRESSURE
         S - STEADY PRESSURE
VSB    - VISIBILITY IN MILES
HX     - HEAT INDEX IN FAHRENHEIT
WCI    - WIND CHILL INDEX IN FAHRENHEIT
TC     - TEMPERATURE IN CELSIUS WHICH IS ALSO KNOWN AS
         TEMPERATURE IN CENTIGRADE
AFB    - AIR FORCE BASE
         LUKE AFB IS LUKE AIR FORCE BASE
         DAVIS-MONTHAN IS DAVIS-MONTHAN AIR FORCE BASE
NAS    - NAVAL AIR STATION
         EL CENTRO NAS IS EL CENTRO NAVAL AIR STATION
N/A    - NOT AVAILABLE




USA.gov is the U.S. government's official web portal to all federal, state and local government web resources and services.